{"data":{"norad_id":48049,"epoch":"2026-09-20T01:27:36.531936Z","epoch_age_seconds":59782,"freshness":"FRESH","line1":"1 48049U 21025H   26263.06083949 -.00000316  00000+0 -90025-3 0  9993","line2":"2 48049  87.8913 301.3454 0001774  91.4966 268.6367 13.13470410265956","mean_motion":13.1347041,"eccentricity":0.0001774,"inclination_deg":87.8913,"raan_deg":301.3454,"arg_perigee_deg":91.4966,"mean_anomaly_deg":268.6367,"bstar":-0.00090025,"rev_number":26595,"period_min":109.63322729136,"perigee_km":1208.4177272513,"apogee_km":1211.1099144625,"semimajor_km":7587.9008208569,"source":"CELESTRAK","updated_at":"2026-09-20T09:00:44.585038Z"}}